CW1631 Weather Reports


Display with metric or nautical units.
time (UTC)temp
F
wind
direction
speed
MPH
gust
MPH
rain 1hr
in
rain 24hr
in
rain mn
in
humidity
%
barometer
mb
20260509124755 44 304 1.0 1.0 0.07 0.15 0.15 95 1010.2
20260509124252 43 260 0.0 0.0 0.12 0.15 0.15 95 1010.2
20260509123750 43 253 0.0 0.0 0.05 0.14 0.14 95 1010.3
20260509123247 43 267 0.0 0.0 0.00 0.13 0.13 95 1010.2
20260509122742 43 249 0.0 0.0 0.07 0.13 0.13 95 1010.1
20260509122240 43 253 0.0 0.0 0.07 0.13 0.13 95 1010.2
20260509121737 43 280 0.0 0.0 0.07 0.12 0.12 95 1010.3
20260509121234 42 284 0.0 0.0 0.07 0.12 0.12 95 1010.4
20260509120732 42 288 0.0 0.0 0.05 0.11 0.11 95 1010.5
20260509120229 42 295 0.0 0.0 0.05 0.11 0.11 95 1010.4
20260509115727 42 348 1.0 1.0 0.07 0.10 0.10 95 1010.3
20260509115224 42 302 0.0 0.0 0.12 0.10 0.10 94 1010.4
20260509114722 42 91 1.0 1.0 0.05 0.09 0.09 94 1010.3
20260509114221 42 90 1.0 2.0 0.12 0.09 0.09 94 1010.5
20260509113719 42 73 1.0 1.0 0.12 0.08 0.08 94 1010.4
20260509113216 41 224 0.0 1.0 0.12 0.07 0.07 94 1010.3
20260509112713 41 315 0.0 0.0 0.12 0.06 0.06 94 1010.4
20260509112210 41 332 1.0 1.0 0.05 0.05 0.05 94 1010.3
20260509111706 41 312 0.0 0.0 0.12 0.05 0.05 94 1010.3
20260509111203 41 293 0.0 0.0 0.07 0.04 0.04 94 1010.3
20260509110701 41 284 0.0 0.0 0.05 0.03 0.03 94 1010.2
20260509110157 41 273 0.0 0.0 0.05 0.03 0.03 94 1010.4
20260509105655 41 279 0.0 0.0 0.00 0.02 0.02 94 1010.4
20260509105153 41 269 0.0 0.0 0.00 0.02 0.02 94 1010.5
20260509104650 41 260 0.0 0.0 0.00 0.02 0.02 94 1010.4
20260509104147 41 260 0.0 0.0 0.07 0.02 0.02 94 1010.4
20260509103645 41 258 0.0 0.0 0.07 0.02 0.02 93 1010.5
20260509103142 41 278 0.0 0.0 0.00 0.01 0.01 93 1010.4
20260509102640 41 278 1.0 1.0 0.00 0.01 0.01 93 1010.3
20260509102136 41 279 1.0 1.0 0.00 0.01 0.01 93 1010.3
20260509101633 40 296 0.0 0.0 0.00 0.01 0.01 93 1010.1
20260509101130 40 95 1.0 1.0 0.00 0.01 0.01 93 1010.0
20260509100627 40 178 1.0 1.0 0.00 0.01 0.01 93 1010.4
20260509100124 40 211 1.0 1.0 0.00 0.01 0.01 93 1010.3
20260509095621 40 243 0.0 0.0 0.00 0.01 0.01 93 1010.3
20260509095118 40 297 0.0 0.0 0.00 0.01 0.01 93 1010.3
20260509094614 40 320 0.0 0.0 0.00 0.01 0.01 93 1009.9
20260509094111 40 251 1.0 1.0 0.00 0.01 0.01 92 1010.0
20260509093610 40 283 0.0 0.0 0.00 0.01 0.01 92 1010.1
20260509093106 40 288 0.0 0.0 0.00 0.01 0.01 92 1010.4
20260509092604 40 331 1.0 1.0 0.00 0.01 0.01 92 1010.2
20260509092103 40 301 0.0 0.0 0.00 0.01 0.01 92 1010.3
20260509091600 40 297 0.0 0.0 0.00 0.01 0.01 92 1010.2
20260509091056 40 336 1.0 1.0 0.00 0.01 0.01 92 1010.1
20260509090554 40 3 1.0 1.0 0.00 0.01 0.01 91 1010.4
20260509090052 40 42 2.0 2.0 0.00 0.01 0.01 91 1010.3
20260509085548 40 334 0.0 1.0 0.00 0.01 0.01 91 1010.7
20260509085044 40 327 0.0 0.0 0.00 0.01 0.01 91 1010.6
20260509084542 40 337 1.0 1.0 0.05 0.01 0.01 91 1010.5
20260509084039 40 35 2.0 2.0 0.05 0.01 0.01 91 1010.4
20260509083536 40 349 1.0 1.0 0.00 0.00 0.00 91 1010.6
20260509083032 40 306 1.0 1.0 0.00 0.00 0.00 91 1010.8
20260509082530 40 287 0.0 0.0 0.00 0.00 0.00 91 1010.7
20260509082027 41 276 0.0 1.0 0.00 0.00 0.00 91 1010.9
20260509081524 41 279 0.0 0.0 0.00 0.00 0.00 91 1010.9
20260509081021 40 287 0.0 0.0 0.00 0.00 0.00 91 1010.7
20260509080519 40 282 0.0 0.0 0.00 0.00 0.00 91 1011.1
20260509080017 40 7 1.0 1.0 0.00 0.00 0.00 91 1010.8
20260509075514 40 58 1.0 2.0 0.00 0.00 0.00 91 1010.9
20260509075012 40 294 0.0 0.0 0.00 0.00 0.00 91 1010.8
20260509074509 40 303 0.0 0.0 0.00 0.00 0.00 90 1011.1
20260509074005 40 1 1.0 1.0 0.00 0.00 0.00 90 1010.8
20260509073501 40 328 0.0 1.0 0.00 0.00 0.00 90 1010.9
20260509072958 40 10 1.0 1.0 0.00 0.00 0.00 90 1010.8
20260509072455 40 71 1.0 2.0 0.00 0.00 0.00 90 1011.0
20260509071952 40 331 0.0 1.0 0.00 0.00 0.00 90 1010.6
20260509071448 40 294 0.0 0.0 0.00 0.00 0.00 90 1010.8
20260509070946 40 294 0.0 0.0 0.00 0.00 0.00 89 1010.9
20260509070443 40 343 0.0 0.0 0.00 0.00 0.00 89 1010.4
20260509065938 40 67 2.0 2.0 0.00 0.00 0.00 88 1010.6
20260509065434 40 314 0.0 1.0 0.00 0.00 0.00 88 1010.9
20260509064931 40 276 0.0 0.0 0.00 0.00 0.00 88 1010.7
20260509064429 40 276 0.0 0.0 0.00 0.00 0.00 88 1011.0
20260509063926 40 276 0.0 0.0 0.00 0.00 0.00 88 1010.9
20260509063422 40 276 0.0 0.0 0.00 0.00 0.00 87 1010.9
20260509062919 40 287 0.0 1.0 0.00 0.00 0.00 86 1011.0
20260509062416 40 294 0.0 1.0 0.00 0.00 0.00 86 1011.0
20260509061914 40 293 0.0 0.0 0.00 0.00 0.00 86 1011.2
20260509061412 40 293 0.0 0.0 0.00 0.00 0.00 87 1011.2
20260509060908 40 286 0.0 0.0 0.00 0.00 0.00 87 1011.3
20260509060405 40 319 1.0 1.0 0.00 0.00 0.00 87 1011.5
20260509055900 40 337 1.0 1.0 0.00 0.00 0.00 87 1011.4
20260509055355 40 308 0.0 0.0 0.00 0.00 0.00 87 1011.4
20260509054853 40 319 0.0 0.0 0.00 0.00 0.00 87 1011.4
20260509054350 40 341 1.0 1.0 0.00 0.00 0.00 87 1011.5
20260509053848 40 354 0.0 0.0 0.00 0.00 0.00 87 1011.6
20260509053345 40 251 0.0 0.0 0.00 0.00 0.00 87 1011.5
20260509052843 40 244 0.0 0.0 0.00 0.00 0.00 87 1011.6
20260509052340 40 307 0.0 1.0 0.00 0.00 0.00 88 1011.5
20260509051838 40 265 1.0 1.0 0.00 0.00 0.00 88 1011.5
20260509051336 40 57 4.0 5.0 0.00 0.00 0.00 89 1011.4
20260509050832 39 15 1.0 1.0 0.00 0.00 0.00 89 1011.5
20260509050329 39 314 0.0 0.0 0.00 0.00 0.00 89 1011.5
20260509045826 39 296 0.0 0.0 0.00 0.00 0.00 89 1011.9
20260509045323 39 296 0.0 0.0 0.00 0.00 0.00 90 1011.9
20260509044820 39 296 0.0 0.0 0.00 0.00 0.00 90 1011.6
20260509044318 39 295 0.0 0.0 0.00 0.00 0.00 90 1011.8
20260509043814 39 295 0.0 0.0 0.00 0.00 0.00 90 1011.5
20260509043310 39 352 1.0 1.0 0.00 0.00 0.00 90 1011.7
20260509042806 39 348 1.0 1.0 0.00 0.00 0.00 90 1011.8
20260509042306 39 304 1.0 1.0 0.00 0.00 0.00 90 1011.9
20260509041759 39 292 0.0 0.0 0.00 0.00 0.00 90 1012.0
20260509041256 39 252 0.0 0.0 0.00 0.00 0.00 91 1011.8
20260509040755 39 206 1.0 1.0 0.00 0.00 0.00 91 1011.8
20260509040251 39 174 1.0 1.0 0.00 0.00 0.00 91 1011.8
20260509035749 39 234 0.0 0.0 0.00 0.05 0.05 91 1011.9
20260509035245 39 303 1.0 1.0 0.00 0.05 0.05 91 1011.8
20260509034742 39 286 1.0 1.0 0.00 0.05 0.05 91 1011.8
20260509034240 39 348 1.0 1.0 0.00 0.05 0.05 91 1011.6
20260509033736 39 296 0.0 0.0 0.00 0.05 0.05 91 1011.6
20260509033233 39 315 0.0 0.0 0.00 0.05 0.05 90 1011.9
20260509032731 40 315 0.0 1.0 0.00 0.05 0.05 90 1011.8
20260509032227 40 315 0.0 1.0 0.00 0.05 0.05 90 1011.7
20260509031725 40 303 0.0 0.0 0.00 0.05 0.05 89 1011.8
20260509031222 40 287 0.0 0.0 0.00 0.05 0.05 89 1011.9
20260509030720 40 287 0.0 0.0 0.00 0.05 0.05 88 1011.8
20260509030217 41 316 1.0 1.0 0.00 0.05 0.05 88 1011.7
20260509025714 41 314 1.0 1.0 0.00 0.05 0.05 87 1011.6
20260509025210 41 295 1.0 1.0 0.00 0.05 0.05 87 1011.9
20260509024705 41 247 0.0 0.0 0.00 0.05 0.05 87 1012.0
20260509024201 41 247 0.0 1.0 0.00 0.05 0.05 87 1011.7
20260509023659 42 287 0.0 0.0 0.00 0.05 0.05 87 1011.8
20260509023156 42 322 1.0 1.0 0.00 0.05 0.05 86 1011.6
20260509022652 43 312 1.0 1.0 0.00 0.05 0.05 85 1011.6
20260509022150 43 312 1.0 1.0 0.00 0.05 0.05 85 1011.8
20260509021646 43 322 1.0 1.0 0.00 0.05 0.05 84 1012.0
20260509021144 44 303 1.0 1.0 0.00 0.05 0.05 83 1012.0
20260509020642 44 84 2.0 2.0 0.00 0.05 0.05 83 1011.9
20260509020139 44 308 0.0 1.0 0.00 0.05 0.05 82 1012.1
20260509015637 44 297 0.0 0.0 0.00 0.05 0.05 81 1011.9
20260509015135 44 311 0.0 0.0 0.00 0.05 0.05 81 1011.7
20260509014631 45 310 0.0 0.0 0.00 0.05 0.05 79 1011.9
20260509014127 45 313 1.0 1.0 0.00 0.05 0.05 79 1011.5
20260509013625 45 287 0.0 0.0 0.00 0.05 0.05 78 1011.8
20260509013120 45 308 1.0 1.0 0.00 0.05 0.05 77 1011.5
20260509012617 46 308 1.0 2.0 0.00 0.05 0.05 76 1011.6
20260509012114 46 282 0.0 0.0 0.00 0.05 0.05 75 1011.3
20260509011612 46 281 0.0 0.0 0.00 0.05 0.05 73 1011.6
20260509011109 46 282 0.0 0.0 0.00 0.05 0.05 73 1011.2
20260509010607 47 299 1.0 1.0 0.00 0.05 0.05 73 1011.1
20260509005601 47 295 0.0 0.0 0.00 0.05 0.05 71 1010.9
20260509005056 47 297 0.0 0.0 0.00 0.05 0.05 71 1011.0
20260509004553 48 297 0.0 0.0 0.00 0.05 0.05 70 1011.0
20260509004050 48 297 0.0 0.0 0.00 0.05 0.05 68 1010.9
20260509003548 48 316 1.0 2.0 0.00 0.05 0.05 67 1010.9
20260509003045 49 308 1.0 1.0 0.00 0.05 0.05 67 1010.8
20260509002543 49 279 0.0 0.0 0.00 0.05 0.05 67 1010.7
20260509002040 50 277 0.0 0.0 0.00 0.05 0.05 65 1010.8
20260509001537 50 298 1.0 1.0 0.00 0.05 0.05 60 1010.4
20260509001033 51 297 0.0 0.0 0.00 0.05 0.05 56 1010.5
20260509000532 51 320 0.0 0.0 0.00 0.05 0.05 56 1010.6
20260509000027 51 289 0.0 0.0 0.00 0.05 0.05 55 1010.5
20260508235525 52 285 0.0 0.0 0.00 0.05 0.05 54 1010.3
20260508235021 53 340 0.0 1.0 0.00 0.05 0.05 49 1010.5
20260508234519 53 327 1.0 1.0 0.00 0.05 0.05 49 1010.5
20260508234015 53 41 2.0 2.0 0.00 0.05 0.05 49 1010.2
20260508233515 54 14 1.0 1.0 0.00 0.05 0.05 48 1010.4
20260508233012 54 329 1.0 1.0 0.00 0.05 0.05 47 1010.1
20260508232509 54 299 0.0 1.0 0.00 0.05 0.05 48 1010.2
20260508232005 55 342 1.0 1.0 0.00 0.05 0.05 47 1010.3
20260508231503 55 283 0.0 0.0 0.00 0.05 0.05 45 1010.2
20260508231000 56 27 2.0 2.0 0.00 0.05 0.05 44 1010.2
20260508230456 56 279 0.0 1.0 0.00 0.05 0.05 44 1010.2
20260508225953 55 266 1.0 1.0 0.00 0.05 0.05 45 1010.1
20260508225450 55 302 2.0 3.0 0.00 0.05 0.05 46 1010.0
20260508224947 55 310 4.0 5.0 0.00 0.05 0.05 44 1009.8
20260508224445 56 286 2.0 2.0 0.00 0.05 0.05 45 1010.1
20260508223942 55 278 1.0 1.0 0.00 0.05 0.05 45 1010.1
20260508223440 55 262 1.0 1.0 0.00 0.05 0.05 45 1010.2
20260508222937 55 305 3.0 3.0 0.00 0.05 0.05 46 1010.2
20260508222434 56 320 7.0 8.0 0.00 0.05 0.05 45 1010.2
20260508221931 56 296 2.0 2.0 0.00 0.05 0.05 45 1010.1
20260508221427 56 285 3.0 3.0 0.00 0.05 0.05 45 1010.1
20260508220923 56 41 2.0 2.0 0.00 0.05 0.05 44 1010.1
20260508220420 56 304 1.0 1.0 0.00 0.05 0.05 44 1010.2
20260508215916 56 288 3.0 3.0 0.00 0.05 0.05 45 1010.3
20260508215413 56 358 6.0 7.0 0.00 0.05 0.05 45 1010.2
20260508214909 56 303 2.0 2.0 0.00 0.05 0.05 46 1010.3
20260508214407 55 274 5.0 9.0 0.00 0.05 0.05 47 1010.4
20260508213903 55 319 4.0 6.0 0.00 0.05 0.05 45 1010.4
20260508213401 55 305 8.0 8.0 0.00 0.05 0.05 45 1010.1
20260508212856 54 309 2.0 3.0 0.00 0.05 0.05 46 1010.2
20260508212353 54 261 2.0 2.0 0.00 0.05 0.05 46 1010.3
20260508211849 54 352 5.0 6.0 0.00 0.05 0.05 46 1010.4
20260508211344 55 334 8.0 9.0 0.00 0.05 0.05 46 1010.2
20260508210842 55 35 4.0 5.0 0.00 0.05 0.05 45 1010.3
20260508210339 56 26 5.0 6.0 0.00 0.05 0.05 46 1010.6
20260508205835 55 9 2.0 2.0 0.00 0.05 0.05 46 1010.4
20260508205332 55 232 3.0 5.0 0.00 0.05 0.05 46 1010.6
20260508204828 55 259 9.0 10.0 0.00 0.05 0.05 45 1010.6
20260508204325 55 233 9.0 10.0 0.00 0.05 0.05 46 1010.6
20260508203821 54 198 2.0 2.0 0.00 0.05 0.05 48 1010.8
20260508203318 54 27 3.0 3.0 0.00 0.05 0.05 47 1010.8
20260508202813 54 10 5.0 6.0 0.00 0.05 0.05 49 1011.0
20260508202311 54 348 5.0 7.0 0.00 0.05 0.05 49 1010.8
20260508201808 54 308 13.0 15.0 0.00 0.05 0.05 48 1011.0
20260508201305 54 341 11.0 15.0 0.00 0.05 0.05 50 1010.6
20260508200801 55 58 3.0 3.0 0.00 0.05 0.05 51 1010.9
20260508200257 54 170 1.0 2.0 0.00 0.05 0.05 50 1011.1
20260508195754 54 18 6.0 7.0 0.00 0.05 0.05 51 1011.1
20260508195250 54 241 3.0 3.0 0.00 0.05 0.05 50 1011.3
20260508194747 54 350 6.0 7.0 0.00 0.05 0.05 50 1011.2
20260508194244 53 277 2.0 2.0 0.00 0.05 0.05 58 1011.4
20260508193741 52 248 2.0 3.0 0.00 0.05 0.05 54 1011.5
20260508193238 52 330 9.0 11.0 0.00 0.05 0.05 55 1011.2
20260508192734 53 57 6.0 8.0 0.00 0.05 0.05 52 1011.2
20260508192231 52 18 4.0 6.0 0.00 0.05 0.05 57 1011.4
20260508191728 52 331 5.0 6.0 0.00 0.05 0.05 55 1011.4
20260508191225 51 241 4.0 6.0 0.00 0.05 0.05 58 1011.5
20260508190723 50 248 4.0 5.0 0.00 0.05 0.05 60 1011.7
20260508190218 51 330 5.0 7.0 0.00 0.05 0.05 60 1011.8
20260508185715 51 271 6.0 7.0 0.00 0.05 0.05 61 1011.8
20260508185213 51 323 6.0 7.0 0.00 0.05 0.05 62 1011.7
20260508184710 50 321 4.0 5.0 0.00 0.05 0.05 61 1011.7
20260508184207 50 218 2.0 2.0 0.00 0.05 0.05 65 1011.9
20260508183704 50 215 6.0 7.0 0.00 0.05 0.05 66 1012.0
20260508183200 50 174 3.0 5.0 0.00 0.05 0.05 65 1012.1
20260508182655 49 224 0.0 1.0 0.00 0.05 0.05 67 1012.2
20260508182153 49 124 2.0 2.0 0.00 0.05 0.05 67 1012.3
20260508181649 48 193 0.0 1.0 0.00 0.05 0.05 67 1012.3
20260508181146 48 230 2.0 3.0 0.00 0.05 0.05 72 1012.1
20260508180642 48 206 5.0 6.0 0.00 0.05 0.05 71 1012.2
20260508180139 48 218 3.0 3.0 0.00 0.05 0.05 71 1011.9
20260508175636 48 351 2.0 2.0 0.00 0.05 0.05 69 1012.3
20260508175132 47 262 0.0 1.0 0.00 0.05 0.05 74 1012.2
20260508174630 46 219 2.0 2.0 0.00 0.05 0.05 75 1012.4
20260508174127 47 78 3.0 3.0 0.00 0.05 0.05 72 1012.3
20260508173624 47 230 3.0 3.0 0.00 0.05 0.05 75 1012.4
20260508173120 46 162 2.0 2.0 0.00 0.05 0.05 74 1012.2
20260508172617 47 235 2.0 2.0 0.00 0.05 0.05 74 1012.3
20260508172113 47 272 1.0 2.0 0.00 0.05 0.05 76 1012.4
20260508171610 47 84 2.0 2.0 0.00 0.05 0.05 75 1012.3
20260508171107 48 105 1.0 2.0 0.00 0.05 0.05 74 1012.3
20260508170604 48 166 2.0 2.0 0.00 0.05 0.05 78 1012.4
20260508165558 44 313 0.0 0.0 0.00 0.05 0.05 82 1012.4
20260508165055 44 116 2.0 3.0 0.00 0.05 0.05 82 1012.6
20260508164551 44 140 4.0 5.0 0.00 0.05 0.05 84 1012.6
20260508164048 43 99 3.0 3.0 0.00 0.05 0.05 85 1012.8
20260508163546 42 116 2.0 2.0 0.00 0.05 0.05 86 1012.4
20260508163042 42 95 2.0 3.0 0.00 0.05 0.05 88 1012.8
20260508162539 42 185 2.0 2.0 0.00 0.05 0.05 88 1013.1
20260508162037 41 347 2.0 2.0 0.00 0.05 0.05 89 1013.0
20260508161533 41 156 3.0 3.0 0.00 0.05 0.05 89 1013.0
20260508161030 40 81 2.0 2.0 0.00 0.05 0.05 90 1013.1
20260508160529 40 98 3.0 3.0 0.00 0.05 0.05 90 1013.3
20260508160026 39 33 3.0 3.0 0.00 0.05 0.05 90 1013.3
20260508155522 39 358 3.0 3.0 0.00 0.05 0.05 90 1013.3
20260508155020 39 35 5.0 7.0 0.00 0.05 0.05 90 1013.3
20260508154517 39 2 3.0 3.0 0.07 0.05 0.05 90 1013.0
20260508154013 39 53 1.0 2.0 0.07 0.05 0.05 90 1012.9
20260508153510 39 35 4.0 5.0 0.00 0.04 0.04 90 1012.8
20260508153007 39 1 3.0 3.0 0.00 0.04 0.04 90 1013.0
20260508152504 39 1 2.0 2.0 0.00 0.04 0.04 90 1013.0
20260508151959 39 325 1.0 2.0 0.00 0.04 0.04 90 1013.1
20260508151456 39 3 3.0 3.0 0.00 0.04 0.04 90 1013.1
20260508150953 38 329 2.0 2.0 0.00 0.04 0.04 90 1012.5
20260508150450 39 65 2.0 3.0 0.00 0.04 0.04 90 1012.4
20260508145945 39 354 2.0 2.0 0.00 0.04 0.04 90 1012.6
20260508145442 39 359 2.0 3.0 0.00 0.04 0.04 90 1012.6
20260508144939 39 349 2.0 2.0 0.00 0.04 0.04 90 1012.9
20260508144436 39 342 2.0 2.0 0.00 0.04 0.04 89 1012.8
20260508143934 39 292 1.0 1.0 0.00 0.04 0.04 89 1012.8
20260508143431 39 322 3.0 3.0 0.07 0.04 0.04 89 1013.0
20260508142927 39 277 2.0 3.0 0.07 0.04 0.04 88 1012.9
20260508142425 40 340 2.0 2.0 0.05 0.03 0.03 88 1013.0
20260508141921 40 300 4.0 5.0 0.05 0.03 0.03 88 1012.5
20260508141418 40 281 1.0 2.0 0.07 0.02 0.02 87 1013.0
20260508140915 41 296 5.0 6.0 0.07 0.02 0.02 86 1012.4
20260508140412 41 336 5.0 7.0 0.00 0.01 0.01 85 1012.5
20260508135908 42 341 7.0 7.0 0.00 0.01 0.01 84 1012.3
20260508135405 42 313 3.0 3.0 0.00 0.01 0.01 83 1012.2
20260508134901 42 300 2.0 3.0 0.00 0.01 0.01 81 1012.2
20260508134357 43 250 3.0 5.0 0.00 0.01 0.01 82 1012.0
20260508133854 43 243 1.0 1.0 0.00 0.01 0.01 83 1011.8
20260508133352 43 233 5.0 6.0 0.00 0.01 0.01 81 1011.6
20260508132849 44 235 3.0 5.0 0.00 0.01 0.01 82 1011.9
20260508132347 44 242 2.0 2.0 0.00 0.01 0.01 82 1012.0
20260508131843 44 270 0.0 0.0 0.00 0.01 0.01 82 1011.8
20260508131339 44 274 0.0 0.0 0.00 0.01 0.01 81 1011.9
20260508130836 44 245 3.0 3.0 0.00 0.01 0.01 80 1011.5
20260508130332 44 266 0.0 0.0 0.00 0.01 0.01 79 1011.5
20260508125829 44 219 3.0 3.0 0.00 0.01 0.01 81 1011.5
20260508125325 44 274 1.0 1.0 0.00 0.01 0.01 81 1011.3